Simultaneous Nadir Overpasses (SNOs) Predictions

Prediction of SNOs between FY3D and AQUA Satellite Orbit:

Table of predicted SNOs for the next 14.0 days since TLE Epoch: 7/15/2024
Index Date (FY3D) Time (FY3D) Lat,Lon (FY3D) SZA (FY3D ) Date (AQUA) Time (AQUA) Lat,Lon (AQUA) SZA (AQUA ) Distance(km) Time Diff (sec)
1 07/16/2024 19:46:57 -79.44, 44.97 121.11 07/16/2024 19:47:02 -79.43, 45.08 121.13 2.46 5
2 07/19/2024 07:00:55 -80.94,-144.80 117.46 07/19/2024 07:02:09 -81.29,-144.27 117.30 39.54 74
3 07/19/2024 07:50:34 79.43, 44.19 59.32 07/19/2024 07:50:26 79.43, 44.32 59.31 2.89 8
4 07/21/2024 19:03:30 79.58,-125.29 60.02 07/21/2024 19:04:31 79.57,-125.21 59.99 1.97 61
5 07/21/2024 19:54:08 -79.37, 43.90 120.30 07/21/2024 19:53:47 -79.36, 43.97 120.31 1.64 21
6 07/24/2024
